Location: Central Falls
(41.8900°N, 71.3929°W)
Time: 14:43:41
(UTC+00:00)

Courier 1B Rocket - Pass Details

Date: 12 December 2023
Orbit: 920 x 1202 km, 28.2° (Epoch: 01 March)

Event Time Altitude Azimuth Distance (km) Brightness Sun altitude
Rises 14:20:10 0° 233° (SW) 3,988 8.2 17.5°
Reaches altitude 10° 14:23:38 10° 220° (SW) 2,984 7.8 17.9°
Maximum altitude 14:29:10 23° 171° (S) 2,085 8.4 18.4°
Drops below altitude 10° 14:34:26 10° 121° (ESE) 2,825 8.7 18.9°
Sets 14:37:36 0° 107° (ESE) 3,728 8.8 19.2°
